Simultaneous Nadir Overpasses (SNOs) Predictions

Prediction of SNOs between LANDSAT-8 and METOP-A Satellite Orbit:

Table of predicted SNOs for the next 14.0 days since TLE Epoch: 2/8/2020
Index Date (LANDSAT-8) Time (LANDSAT-8) Lat,Lon (LANDSAT-8) SZA (LANDSAT-8 ) Date (METOP-A) Time (METOP-A) Lat,Lon (METOP-A) SZA (METOP-A ) Distance(km) Time Diff (sec)
1 02/10/2020 19:52:48 81.49, -71.70 98.00 02/10/2020 19:51:44 81.49, -71.87 97.95 3.06 64
2 02/10/2020 20:42:15 -81.49, 95.87 82.03 02/10/2020 20:42:24 -81.48, 95.76 82.04 1.98 9
3 02/13/2020 15:27:03 81.48, -5.62 97.03 02/13/2020 15:26:06 81.49, -5.74 97.00 2.16 57
4 02/13/2020 16:16:30 -81.48, 161.98 83.00 02/13/2020 16:16:46 -81.48, 161.91 82.99 1.34 16
5 02/16/2020 11:01:18 81.49, 60.95 96.09 02/16/2020 11:00:28 81.49, 60.79 96.05 2.75 50
6 02/16/2020 11:50:45 -81.48,-131.42 83.93 02/16/2020 11:51:08 -81.48,-131.55 83.93 2.14 23
7 02/19/2020 06:35:34 81.48, 127.22 95.09 02/19/2020 06:34:50 81.48, 127.29 95.09 1.39 44




NCC Satellite Simultaneous Nadir Overpasses (SNOs) Prediction Service
